This is the latest recevied weather packets stored in our database for station/object PY5KT-13. If no packets are shown the sender has not sent any weather packets the latest 10 day(s).
| Time | Temp. | Humidity | Pressure | Rain* | Wind** | Luminosity | Snow |
|---|---|---|---|---|---|---|---|
| 1777406220 | 13.89° C | 94% | 1018.4 hPa | 0.76 mm | - | 15 W/m² | - |
| 1777405918 | 14.44° C | 93% | 1018.4 hPa | 0.76 mm | - | 16 W/m² | - |
| 1777405616 | 14.44° C | 93% | 1018.4 hPa | 0.76 mm | - | 16 W/m² | - |
| 1777405315 | 14.44° C | 93% | 1018.5 hPa | 0.76 mm | - | 19 W/m² | - |
| 1777405013 | 14.44° C | 92% | 1018.3 hPa | 0.51 mm | - | 21 W/m² | - |
| 1777404711 | 14.44° C | 92% | 1018.3 hPa | 0.25 mm | - | 24 W/m² | - |
| 1777404410 | 14.44° C | 91% | 1018.6 hPa | 0.25 mm | - | 19 W/m² | - |
| 1777404108 | 14.44° C | 91% | 1018.5 hPa | 0 mm | - | 18 W/m² | - |
| 1777403806 | 14.44° C | 90% | 1018.5 hPa | 0 mm | - | 15 W/m² | - |
| 1777403504 | 14.44° C | 90% | 1018.4 hPa | 0 mm | - | 16 W/m² | - |
| 1777403202 | 14.44° C | 90% | 1018.5 hPa | 0 mm | - | 17 W/m² | - |
| 1777402900 | 15° C | 90% | 1018.5 hPa | 0 mm | - | 18 W/m² | - |
| 1777402598 | 15° C | 90% | 1018.6 hPa | 0 mm | - | 18 W/m² | - |
| 1777402296 | 15° C | 90% | 1018.4 hPa | 0 mm | - | 23 W/m² | - |
| 1777401994 | 14.44° C | 90% | 1018.4 hPa | 0 mm | - | 34 W/m² | - |
| 1777401693 | 15° C | 90% | 1018.4 hPa | 0 mm | - | 31 W/m² | - |
| 1777401391 | 14.44° C | 90% | 1018.3 hPa | 0 mm | - | 29 W/m² | - |
| 1777401089 | 15° C | 90% | 1018.2 hPa | 0 mm | - | 28 W/m² | - |
| 1777400787 | 14.44° C | 90% | 1018.2 hPa | 0 mm | - | 32 W/m² | - |
| 1777400485 | 14.44° C | 90% | 1018.2 hPa | 0 mm | - | 27 W/m² | - |
| 1777400183 | 15° C | 90% | 1018.3 hPa | 0 mm | - | 27 W/m² | - |
| 1777399882 | 15° C | 90% | 1018.4 hPa | 0 mm | - | 28 W/m² | - |
| 1777399580 | 15° C | 89% | 1018.4 hPa | 0 mm | - | 25 W/m² | - |
| 1777399278 | 15° C | 89% | 1018.5 hPa | 0 mm | - | 28 W/m² | - |
| 1777398977 | 15° C | 88% | 1018.5 hPa | 0 mm | - | 27 W/m² | - |
* Rain latest hour (hover to see other rain measurements)
** Current wind speed in m/s (hover to see current wind gust speed)